Total_Precipitation_Accumulation
0.82 0.90 0.86 0.79 0.72 0.72 0.67 0.57 0.47 0.50 0.49 0.40 0.30 0.26 0.25 0.27 0.28 0.35 0.44 0.36 0.37 0.50 0.64 0.70 0.75 0.70 0.67 0.68 0.69 0.63 0.55 0.51 0.49 0.45 0.38 0.33 0.30 0.30 0.31 0.32 0.32 0.30 0.30
1.09 1.15 1.18 1.13 0.99 0.99 0.98 0.87 0.76 0.75 0.68 0.61 0.51 0.38 0.30 0.39 0.42 0.42 0.51 0.49 0.48 0.55 0.71 0.88 0.95 0.91 0.87 0.88 0.80 0.74 0.69 0.65 0.64 0.62 0.57 0.50 0.43 0.40 0.40 0.40 0.39 0.36 0.32
1.48 1.48 1.50 1.41 1.31 1.31 1.31 1.21 1.11 1.02 0.85 0.74 0.68 0.60 0.52 0.50 0.53 0.56 0.71 0.84 0.77 0.69 0.72 0.81 0.89 0.96 0.99 1.03 1.01 0.96 0.96 0.86 0.78 0.74 0.72 0.69 0.63 0.56 0.51 0.48 0.46 0.43 0.38
1.75 1.82 1.88 1.79 1.66 1.57 1.66 1.66 1.51 1.36 1.18 1.10 1.06 0.97 0.84 0.79 0.77 0.87 0.98 1.10 1.13 0.98 0.86 0.75 0.73 0.84 0.95 1.05 1.09 1.07 0.99 0.88 0.84 0.84 0.84 0.82 0.75 0.69 0.63 0.60 0.59 0.55 0.50
2.26 2.24 2.23 2.23 2.17 2.17 2.12 1.90 1.84 1.70 1.59 1.48 1.26 1.21 1.10 1.07 1.08 1.05 1.13 1.16 1.21 1.14 1.04 0.88 0.77 0.78 0.84 0.94 1.02 1.06 1.02 0.97 0.95 0.89 0.85 0.85 0.86 0.82 0.70 0.64 0.63 0.62 0.58
2.81 2.89 2.84 2.73 2.66 2.59 2.42 2.32 2.20 2.01 1.83 1.67 1.39 1.30 1.22 1.19 1.17 1.12 1.06 0.99 1.00 0.95 0.92 0.91 0.91 0.81 0.77 0.79 0.81 0.86 0.94 0.97 0.92 0.87 0.87 0.88 0.87 0.80 0.70 0.65 0.63 0.63 0.63
3.49 3.47 3.37 3.11 2.96 2.93 2.80 2.69 2.49 2.29 2.04 1.82 1.73 1.51 1.24 1.13 1.09 0.99 0.90 0.83 0.82 0.81 0.80 0.80 0.78 0.74 0.66 0.65 0.67 0.69 0.76 0.84 0.86 0.89 0.91 0.88 0.84 0.80 0.75 0.72 0.70 0.68 0.67
3.88 3.84 3.82 3.72 3.46 3.27 3.06 2.80 2.66 2.48 2.12 1.85 1.75 1.63 1.37 1.15 0.92 0.76 0.69 0.64 0.62 0.64 0.66 0.66 0.65 0.67 0.64 0.61 0.63 0.68 0.70 0.77 0.82 0.84 0.84 0.85 0.85 0.85 0.85 0.85 0.84 0.83 0.79
4.26 4.12 3.96 3.69 3.47 3.30 3.16 2.94 2.67 2.49 2.20 1.93 1.74 1.67 1.51 1.31 1.03 0.82 0.67 0.60 0.53 0.50 0.50 0.49 0.47 0.47 0.47 0.49 0.51 0.62 0.68 0.69 0.75 0.76 0.78 0.81 0.83 0.83 0.84 0.85 0.85 0.88 0.89
3.96 3.71 3.56 3.43 3.24 2.93 2.68 2.54 2.35 2.08 1.89 1.74 1.61 1.43 1.30 1.17 1.13 1.06 0.92 0.78 0.66 0.60 0.53 0.46 0.44 0.45 0.45 0.46 0.53 0.62 0.67 0.69 0.76 0.73 0.69 0.69 0.71 0.73 0.76 0.83 0.88 0.92 0.96
3.41 3.16 3.01 2.83 2.57 2.22 1.89 1.77 1.78 1.76 1.64 1.51 1.46 1.38 1.29 1.19 1.09 1.06 1.06 0.95 0.86 0.78 0.71 0.66 0.62 0.58 0.53 0.50 0.52 0.62 0.65 0.59 0.60 0.58 0.56 0.57 0.57 0.59 0.63 0.69 0.76 0.81 0.87
2.86 2.51 2.20 1.91 1.69 1.51 1.31 1.26 1.28 1.33 1.40 1.39 1.38 1.33 1.24 1.18 1.11 1.07 1.05 1.02 0.95 0.86 0.76 0.69 0.64 0.58 0.52 0.49 0.50 0.56 0.48 0.45 0.41 0.38 0.38 0.37 0.37 0.37 0.41 0.48 0.56 0.63 0.71
2.17 1.88 1.58 1.39 1.25 1.16 1.10 1.03 0.99 1.01 1.09 1.16 1.20 1.21 1.21 1.18 1.12 1.10 1.13 1.12 1.00 0.89 0.78 0.71 0.64 0.58 0.54 0.50 0.46 0.47 0.40 0.36 0.32 0.28 0.26 0.25 0.24 0.24 0.26 0.30 0.35 0.41 0.50
1.59 1.33 1.11 0.95 0.85 0.82 0.81 0.81 0.82 0.84 0.87 0.92 1.00 1.06 1.10 1.09 1.05 1.02 1.00 0.98 1.00 0.93 0.79 0.69 0.59 0.51 0.44 0.39 0.39 0.39 0.33 0.33 0.29 0.25 0.22 0.20 0.17 0.16 0.15 0.17 0.19 0.22 0.26
1.00 0.86 0.73 0.66 0.62 0.60 0.56 0.53 0.56 0.61 0.68 0.72 0.74 0.78 0.86 0.90 0.90 0.87 0.86 0.84 0.86 0.88 0.77 0.61 0.51 0.43 0.34 0.29 0.29 0.24 0.25 0.26 0.22 0.19 0.16 0.13 0.11 0.10 0.10 0.11 0.12 0.14 0.16
0.68 0.61 0.52 0.47 0.43 0.41 0.37 0.34 0.35 0.37 0.41 0.48 0.53 0.58 0.64 0.69 0.72 0.74 0.75 0.73 0.69 0.67 0.64 0.51 0.42 0.36 0.29 0.23 0.22 0.19 0.19 0.19 0.17 0.15 0.13 0.11 0.10 0.10 0.10 0.11 0.12 0.14 0.15
0.44 0.39 0.34 0.31 0.30 0.27 0.26 0.27 0.30 0.32 0.34 0.36 0.38 0.42 0.46 0.48 0.53 0.56 0.53 0.51 0.49 0.48 0.49 0.42 0.34 0.28 0.25 0.25 0.23 0.23 0.21 0.20 0.19 0.20 0.19 0.17 0.14 0.13 0.13 0.14 0.16 0.16 0.16
0.32 0.28 0.24 0.22 0.23 0.24 0.22 0.22 0.24 0.26 0.28 0.29 0.28 0.29 0.30 0.32 0.36 0.38 0.39 0.39 0.39 0.41 0.42 0.41 0.35 0.29 0.28 0.28 0.27 0.27 0.17 0.15 0.17 0.19 0.18 0.15 0.14 0.13 0.13 0.13 0.13 0.12 0.10
0.27 0.24 0.21 0.19 0.18 0.17 0.17 0.16 0.17 0.18 0.19 0.20 0.20 0.21 0.21 0.21 0.23 0.24 0.27 0.29 0.31 0.33 0.40 0.42 0.35 0.30 0.26 0.22 0.25 0.22 0.19 0.27 0.18 0.14 0.13 0.10 0.08 0.07 0.07 0.06 0.06 0.06 0.05
0.19 0.17 0.16 0.14 0.14 0.12 0.12 0.12 0.12 0.12 0.12 0.12 0.11 0.11 0.11 0.12 0.15 0.19 0.21 0.25 0.29 0.33 0.37 0.39 0.33 0.26 0.24 0.21 0.28 0.28 0.26 0.28 0.22 0.12 0.11 0.08 0.07 0.05 0.05 0.05 0.06 0.05 0.04
0.18 0.13 0.10 0.08 0.06 0.05 0.06 0.06 0.07 0.07 0.08 0.08 0.07 0.06 0.05 0.05 0.07 0.12 0.16 0.21 0.28 0.34 0.36 0.38 0.35 0.31 0.27 0.29 0.31 0.31 0.32 0.29 0.24 0.16 0.18 0.17 0.19 0.24 0.27 0.21 0.14 0.11 0.06
0.13 0.10 0.07 0.05 0.04 0.03 0.03 0.02 0.03 0.05 0.07 0.07 0.07 0.06 0.04 0.03 0.04 0.07 0.10 0.16 0.24 0.31 0.34 0.38 0.37 0.37 0.34 0.37 0.41 0.42 0.44 0.43 0.39 0.26 0.29 0.24 0.21 0.32 0.37 0.35 0.27 0.16 0.09
0.14 0.11 0.08 0.06 0.05 0.03 0.01 0.01 0.01 0.04 0.08 0.11 0.12 0.11 0.08 0.05 0.08 0.11 0.10 0.10 0.14 0.15 0.24 0.37 0.44 0.45 0.46 0.50 0.58 0.57 0.55 0.55 0.51 0.40 0.47 0.44 0.34 0.39 0.32 0.30 0.34 0.27 0.20
0.15 0.14 0.11 0.08 0.07 0.03 0.00 0.00 0.00 0.05 0.10 0.10 0.11 0.13 0.16 0.16 0.11 0.09 0.09 0.14 0.20 0.23 0.26 0.35 0.49 0.52 0.50 0.52 0.59 0.62 0.61 0.60 0.57 0.54 0.59 0.60 0.43 0.41 0.36 0.52 0.55 0.47 0.36
0.18 0.17 0.14 0.12 0.11 0.07 0.01 0.00 0.01 0.06 0.09 0.08 0.08 0.08 0.09 0.12 0.09 0.10 0.14 0.24 0.28 0.33 0.27 0.37 0.47 0.52 0.53 0.56 0.57 0.60 0.69 0.76 0.72 0.61 0.56 0.60 0.54 0.46 0.48 0.68 0.67 0.66 0.55
0.18 0.15 0.14 0.15 0.14 0.11 0.02 0.00 0.01 0.05 0.10 0.10 0.11 0.13 0.09 0.08 0.10 0.10 0.13 0.23 0.32 0.34 0.43 0.63 0.76 0.76 0.72 0.69 0.64 0.67 0.77 0.80 0.81 0.78 0.63 0.63 0.68 0.61 0.64 0.73 0.79 0.74 0.69